User: anonymous   Login
Location: Austin
(30.3000°N, 97.7500°W)
Time: 00:24:33
(UTC-05:00)
Language:

DELTA 2 R/B (1) - Orbit

View from above orbital plane
View from above orbital plane
View from above satellite
View from above satellite

Ground track
Ground track

The orbit is defined by the following mean orbital elements,

1 27665U          26106.74496479 +.00000000 +00000-0 +19179-4 0 00005
2 27665  39.5751 238.2700 0008961 356.0157 151.4735 14.29540282    04
Epoch (UTC): 16 April 2026 17:52:44
Eccentricity: 0.0008961
inclination: 39.5751°
perigee height: 787 km
apogee height: 800 km
right ascension of ascending node: 238.2700°
argument of perigee: 356.0157°
revolutions per day: 14.29540282
mean anomaly at epoch: 151.4735°

The dashed part of the orbit path shows where the satellite is in the earth's shadow,  

DLR